When you browse on this site, cookies collect data to enhance your experience and personalize the content and advertising you see.
Visit our Privacy Policy to learn more. By continuing to use the site, you agree to this use of cookies and data.
  • In Romania
  • List of Countries
  • For 7 days
  • Water Temperature
  • Weather Map
  • Weather Widgets
  • user-avatar
    Login

    Hourly Weather Banja Luka

    Today, 26 January, Sunday

    Time Temperature Precipitation Wind Pressure Humidity
    00:00 +6°C° 0 mm 1 mps 718 mmHg 93%
    01:00 +4°C° 0 mm 2 mps 718 mmHg 93%
    02:00 +4°C° 0 mm 2 mps 718 mmHg 93%
    03:00 +5°C° 0 mm 1 mps 718 mmHg 93%
    04:00 +5°C° 0 mm 1 mps 718 mmHg 92%
    05:00 +5°C° 0 mm 1 mps 718 mmHg 92%
    06:00 +5°C° 0 mm 1 mps 717 mmHg 92%
    07:00 +5°C° 0 mm 1 mps 717 mmHg 92%
    08:00 +6°C° 0.2 mm 1 mps 718 mmHg 91%
    09:00 +7°C° 0.2 mm 1 mps 718 mmHg 89%
    10:00 +8°C° 0.2 mm 1 mps 718 mmHg 87%
    11:00 +8°C° 0.5 mm 1 mps 718 mmHg 87%
    12:00 +8°C° 0.5 mm 1 mps 717 mmHg 87%
    13:00 +9°C° 0.5 mm 1 mps 717 mmHg 86%
    14:00 +8°C° 1.5 mm 1 mps 717 mmHg 90%
    15:00 +6°C° 1.5 mm 0 mps 716 mmHg 93%
    16:00 +6°C° 1.5 mm 0 mps 716 mmHg 96%
    17:00 +5°C° 0.3 mm 0 mps 716 mmHg 96%
    18:00 +5°C° 0.3 mm 0 mps 716 mmHg 96%
    19:00 +5°C° 0.3 mm 0 mps 715 mmHg 95%
    20:00 +5°C° 0 mm 0 mps 715 mmHg 95%
    21:00 +5°C° 0 mm 0 mps 715 mmHg 95%
    22:00 +5°C° 0 mm 0 mps 715 mmHg 95%
    23:00 +5°C° 0 mm 0 mps 715 mmHg 95%

    Tomorrow, 27 January, Monday

    Time Temperature Precipitation Wind Pressure Humidity
    00:00 +4°C° 0 mm 0 mps 715 mmHg 95%
    01:00 +4°C° 0 mm 0 mps 715 mmHg 95%
    02:00 +4°C° 0 mm 0 mps 715 mmHg 95%
    03:00 +4°C° 0 mm 0 mps 715 mmHg 96%
    04:00 +4°C° 0 mm 0 mps 715 mmHg 96%
    05:00 +3°C° 0 mm 0 mps 715 mmHg 96%
    06:00 +3°C° 0 mm 0 mps 715 mmHg 96%
    07:00 +3°C° 0 mm 0 mps 715 mmHg 96%
    08:00 +4°C° 0 mm 0 mps 716 mmHg 94%
    09:00 +5°C° 0 mm 0 mps 716 mmHg 93%
    10:00 +6°C° 0 mm 0 mps 716 mmHg 91%
    11:00 +6°C° 0 mm 0 mps 716 mmHg 87%
    12:00 +7°C° 0 mm 0 mps 716 mmHg 83%
    13:00 +8°C° 0 mm 0 mps 716 mmHg 79%
    14:00 +8°C° 0 mm 0 mps 716 mmHg 81%
    15:00 +7°C° 0 mm 0 mps 715 mmHg 82%
    16:00 +7°C° 0 mm 0 mps 715 mmHg 83%
    17:00 +6°C° 0 mm 0 mps 715 mmHg 86%
    18:00 +5°C° 0 mm 0 mps 715 mmHg 89%
    19:00 +5°C° 0 mm 1 mps 715 mmHg 92%
    20:00 +4°C° 0 mm 1 mps 715 mmHg 92%
    21:00 +4°C° 0 mm 1 mps 715 mmHg 92%
    22:00 +4°C° 0 mm 1 mps 715 mmHg 91%
    23:00 +4°C° 0 mm 1 mps 714 mmHg 91%

    Day after tomorrow, 28 January, Tuesday

    Time Temperature Precipitation Wind Pressure Humidity
    00:00 +4°C° 0 mm 1 mps 714 mmHg 91%
    01:00 +2°C° 0 mm 2 mps 713 mmHg 90%
    02:00 +3°C° 0 mm 2 mps 713 mmHg 89%
    03:00 +3°C° 0 mm 2 mps 713 mmHg 88%
    04:00 +3°C° 0 mm 2 mps 712 mmHg 87%
    05:00 +3°C° 0 mm 2 mps 712 mmHg 86%
    06:00 +3°C° 0 mm 3 mps 712 mmHg 86%
    07:00 +3°C° 0 mm 3 mps 711 mmHg 85%
    08:00 +4°C° 0 mm 3 mps 711 mmHg 84%
    09:00 +5°C° 0 mm 4 mps 711 mmHg 82%
    10:00 +6°C° 0 mm 4 mps 710 mmHg 81%
    11:00 +6°C° 0.1 mm 5 mps 710 mmHg 81%
    12:00 +7°C° 0.1 mm 5 mps 709 mmHg 80%
    13:00 +7°C° 0.1 mm 6 mps 708 mmHg 80%
    14:00 +7°C° 0.2 mm 5 mps 707 mmHg 81%
    15:00 +7°C° 0.2 mm 5 mps 706 mmHg 81%
    16:00 +7°C° 0.2 mm 5 mps 706 mmHg 82%
    17:00 +6°C° 0.1 mm 5 mps 705 mmHg 82%
    18:00 +6°C° 0.1 mm 5 mps 705 mmHg 83%
    19:00 +5°C° 0.1 mm 6 mps 705 mmHg 83%
    20:00 +4°C° 0.1 mm 6 mps 705 mmHg 80%
    21:00 +4°C° 0.1 mm 6 mps 706 mmHg 77%
    22:00 +4°C° 0.1 mm 7 mps 706 mmHg 74%
    23:00 +2°C° 1.1 mm 5 mps 707 mmHg 81%

    29 January, Wednesday

    Time Temperature Precipitation Wind Pressure Humidity
    00:00 +2°C° 1.1 mm 3 mps 707 mmHg 88%
    01:00 +2°C° 1.1 mm 1 mps 707 mmHg 95%
    02:00 +2°C° 0.5 mm 1 mps 708 mmHg 94%
    03:00 +2°C° 0.5 mm 1 mps 708 mmHg 94%
    04:00 +2°C° 0.5 mm 1 mps 709 mmHg 93%
    05:00 -1°C° 0 mm 2 mps 709 mmHg 91%
    06:00 -1°C° 0 mm 2 mps 709 mmHg 89%
    07:00 -2°C° 0 mm 2 mps 709 mmHg 87%
    08:00 +1°C° 0 mm 2 mps 709 mmHg 79%
    09:00 +2°C° 0 mm 3 mps 709 mmHg 71%
    10:00 +3°C° 0 mm 3 mps 709 mmHg 63%
    11:00 +4°C° 0 mm 3 mps 709 mmHg 60%
    12:00 +5°C° 0 mm 4 mps 709 mmHg 57%
    13:00 +6°C° 0 mm 4 mps 708 mmHg 54%
    14:00 +6°C° 0.1 mm 4 mps 708 mmHg 61%
    15:00 +5°C° 0.1 mm 4 mps 709 mmHg 69%
    16:00 +4°C° 0.1 mm 3 mps 709 mmHg 77%
    17:00 +3°C° 0.1 mm 3 mps 709 mmHg 82%
    18:00 +3°C° 0.1 mm 2 mps 710 mmHg 86%
    19:00 +3°C° 0.1 mm 1 mps 710 mmHg 90%
    20:00 +3°C° 0 mm 1 mps 711 mmHg 91%
    21:00 +2°C° 0 mm 1 mps 711 mmHg 91%
    22:00 +2°C° 0 mm 1 mps 711 mmHg 91%
    23:00 +2°C° 0 mm 1 mps 712 mmHg 91%

    30 January, Thursday

    Time Temperature Precipitation Wind Pressure Humidity
    00:00 +2°C° 0 mm 1 mps 712 mmHg 91%
    01:00 +2°C° 0 mm 1 mps 712 mmHg 92%
    02:00 +2°C° 0 mm 1 mps 712 mmHg 91%
    03:00 +2°C° 0 mm 1 mps 712 mmHg 90%
    04:00 +2°C° 0 mm 1 mps 712 mmHg 89%
    05:00 +2°C° 0 mm 1 mps 713 mmHg 87%
    06:00 +2°C° 0 mm 1 mps 713 mmHg 85%
    07:00 +1°C° 0 mm 0 mps 714 mmHg 83%
    08:00 +3°C° 0.1 mm 1 mps 714 mmHg 76%
    09:00 +4°C° 0.1 mm 1 mps 715 mmHg 69%
    10:00 +5°C° 0.1 mm 1 mps 716 mmHg 62%
    11:00 +5°C° 0 mm 1 mps 716 mmHg 57%
    12:00 +6°C° 0 mm 1 mps 716 mmHg 52%
    13:00 +6°C° 0 mm 1 mps 716 mmHg 48%
    14:00 +6°C° 0 mm 1 mps 716 mmHg 52%
    15:00 +5°C° 0 mm 1 mps 716 mmHg 55%
    16:00 +4°C° 0 mm 0 mps 716 mmHg 59%
    17:00 +3°C° 0 mm 1 mps 717 mmHg 62%
    18:00 +2°C° 0 mm 1 mps 717 mmHg 64%
    19:00 +1°C° 0 mm 1 mps 717 mmHg 67%
    20:00 +1°C° 0 mm 1 mps 717 mmHg 66%
    21:00 +1°C° 0 mm 1 mps 717 mmHg 65%
    22:00 0°C° 0 mm 1 mps 717 mmHg 64%
    23:00 -1°C° 0 mm 2 mps 717 mmHg 63%

    31 January, Friday

    Time Temperature Precipitation Wind Pressure Humidity
    00:00 -1°C° 0 mm 2 mps 717 mmHg 61%
    01:00 -1°C° 0 mm 2 mps 717 mmHg 59%
    02:00 -1°C° 0 mm 2 mps 717 mmHg 58%
    03:00 -1°C° 0 mm 2 mps 717 mmHg 57%
    04:00 +1°C° 0 mm 2 mps 717 mmHg 57%
    05:00 -1°C° 0 mm 2 mps 717 mmHg 57%
    06:00 -1°C° 0 mm 2 mps 717 mmHg 57%
    07:00 -1°C° 0 mm 2 mps 717 mmHg 57%
    08:00 +2°C° 0 mm 1 mps 717 mmHg 53%
    09:00 +4°C° 0 mm 1 mps 718 mmHg 50%
    10:00 +6°C° 0 mm 1 mps 718 mmHg 46%
    11:00 +7°C° 0 mm 1 mps 718 mmHg 44%
    12:00 +8°C° 0 mm 1 mps 718 mmHg 42%
    13:00 +9°C° 0 mm 1 mps 718 mmHg 39%
    14:00 +8°C° 0 mm 1 mps 717 mmHg 46%
    15:00 +7°C° 0 mm 1 mps 717 mmHg 52%
    16:00 +7°C° 0 mm 1 mps 717 mmHg 59%
    17:00 +5°C° 0 mm 1 mps 717 mmHg 63%
    18:00 +4°C° 0 mm 1 mps 717 mmHg 67%
    19:00 +2°C° 0 mm 1 mps 717 mmHg 71%
    20:00 +2°C° 0 mm 1 mps 717 mmHg 72%
    21:00 +1°C° 0 mm 2 mps 718 mmHg 72%
    22:00 +1°C° 0 mm 2 mps 718 mmHg 73%
    23:00 +1°C° 0 mm 2 mps 718 mmHg 74%
    Show more